Location: Saint-Usage
(47.1052°N, 5.2587°E)
Time: 16:41:37
(UTC+02:00)

ISS - Pass Details

Date: 27 September 2021
Orbit: 417 x 423 km, 51.6° (Epoch: 26 October)

Event Time Altitude Azimuth Distance (km) Brightness Sun altitude
Rises 20:10:14 0° 282° (WNW) 2,363 2.4 -8.3°
Reaches altitude 10° 20:12:26 10° 291° (WNW) 1,500 0.5 -8.7°
Maximum altitude 20:15:35 36° 0° (N) 686 -2.6 -9.2°
Enters shadow 20:18:33 11° 68° (ENE) 1,437 -1.6 -9.7°
